Index of /20260411/WXO-DD/model_gdps/15km/12/174
Name Last modified Size Description
Parent Directory -
20260411T12Z_MSC_GDPS_AbsoluteVorticity_IsbL-0200_LatLon0.15_PT174H.grib2 2026-04-11 16:53 1.5M
20260411T12Z_MSC_GDPS_AbsoluteVorticity_IsbL-0250_LatLon0.15_PT174H.grib2 2026-04-11 16:53 1.3M
20260411T12Z_MSC_GDPS_AbsoluteVorticity_IsbL-0500_LatLon0.15_PT174H.grib2 2026-04-11 16:53 1.5M
20260411T12Z_MSC_GDPS_AbsoluteVorticity_IsbL-0700_LatLon0.15_PT174H.grib2 2026-04-11 16:53 1.3M
20260411T12Z_MSC_GDPS_AbsoluteVorticity_IsbL-0850_LatLon0.15_PT174H.grib2 2026-04-11 16:53 1.6M
20260411T12Z_MSC_GDPS_AirTemp-Max_AGL-2m_LatLon0.15_PT174H.grib2 2026-04-11 16:53 754K
20260411T12Z_MSC_GDPS_AirTemp-Min_AGL-2m_LatLon0.15_PT174H.grib2 2026-04-11 16:53 802K
20260411T12Z_MSC_GDPS_AirTemp_AGL-120m_LatLon0.15_PT174H.grib2 2026-04-11 16:53 915K
20260411T12Z_MSC_GDPS_AirTemp_AGL-2m_LatLon0.15_PT174H.grib2 2026-04-11 16:53 1.0M
20260411T12Z_MSC_GDPS_AirTemp_AGL-40m_LatLon0.15_PT174H.grib2 2026-04-11 16:53 820K
20260411T12Z_MSC_GDPS_AirTemp_AGL-80m_LatLon0.15_PT174H.grib2 2026-04-11 16:53 924K
20260411T12Z_MSC_GDPS_AirTemp_IsbL-0001_LatLon0.15_PT174H.grib2 2026-04-11 16:53 701K
20260411T12Z_MSC_GDPS_AirTemp_IsbL-0005_LatLon0.15_PT174H.grib2 2026-04-11 16:53 678K
20260411T12Z_MSC_GDPS_AirTemp_IsbL-0010_LatLon0.15_PT174H.grib2 2026-04-11 16:53 753K
20260411T12Z_MSC_GDPS_AirTemp_IsbL-0020_LatLon0.15_PT174H.grib2 2026-04-11 16:53 698K
20260411T12Z_MSC_GDPS_AirTemp_IsbL-0030_LatLon0.15_PT174H.grib2 2026-04-11 16:53 748K
20260411T12Z_MSC_GDPS_AirTemp_IsbL-0050_LatLon0.15_PT174H.grib2 2026-04-11 16:53 813K
20260411T12Z_MSC_GDPS_AirTemp_IsbL-0100_LatLon0.15_PT174H.grib2 2026-04-11 16:53 958K
20260411T12Z_MSC_GDPS_AirTemp_IsbL-0150_LatLon0.15_PT174H.grib2 2026-04-11 16:53 973K
20260411T12Z_MSC_GDPS_AirTemp_IsbL-0175_LatLon0.15_PT174H.grib2 2026-04-11 16:53 964K
20260411T12Z_MSC_GDPS_AirTemp_IsbL-0200_LatLon0.15_PT174H.grib2 2026-04-11 16:53 972K
20260411T12Z_MSC_GDPS_AirTemp_IsbL-0225_LatLon0.15_PT174H.grib2 2026-04-11 16:53 1.0M
20260411T12Z_MSC_GDPS_AirTemp_IsbL-0250_LatLon0.15_PT174H.grib2 2026-04-11 16:53 1.0M
20260411T12Z_MSC_GDPS_AirTemp_IsbL-0275_LatLon0.15_PT174H.grib2 2026-04-11 16:53 1.0M
20260411T12Z_MSC_GDPS_AirTemp_IsbL-0300_LatLon0.15_PT174H.grib2 2026-04-11 16:53 1.0M
20260411T12Z_MSC_GDPS_AirTemp_IsbL-0350_LatLon0.15_PT174H.grib2 2026-04-11 16:53 927K
20260411T12Z_MSC_GDPS_AirTemp_IsbL-0400_LatLon0.15_PT174H.grib2 2026-04-11 16:53 940K
20260411T12Z_MSC_GDPS_AirTemp_IsbL-0450_LatLon0.15_PT174H.grib2 2026-04-11 16:53 961K
20260411T12Z_MSC_GDPS_AirTemp_IsbL-0500_LatLon0.15_PT174H.grib2 2026-04-11 16:53 1.0M
20260411T12Z_MSC_GDPS_AirTemp_IsbL-0550_LatLon0.15_PT174H.grib2 2026-04-11 16:53 1.0M
20260411T12Z_MSC_GDPS_AirTemp_IsbL-0600_LatLon0.15_PT174H.grib2 2026-04-11 16:53 897K
20260411T12Z_MSC_GDPS_AirTemp_IsbL-0650_LatLon0.15_PT174H.grib2 2026-04-11 16:53 923K
20260411T12Z_MSC_GDPS_AirTemp_IsbL-0700_LatLon0.15_PT174H.grib2 2026-04-11 16:53 962K
20260411T12Z_MSC_GDPS_AirTemp_IsbL-0750_LatLon0.15_PT174H.grib2 2026-04-11 16:53 1.0M
20260411T12Z_MSC_GDPS_AirTemp_IsbL-0800_LatLon0.15_PT174H.grib2 2026-04-11 16:53 1.1M
20260411T12Z_MSC_GDPS_AirTemp_IsbL-0850_LatLon0.15_PT174H.grib2 2026-04-11 16:53 1.1M
20260411T12Z_MSC_GDPS_AirTemp_IsbL-0875_LatLon0.15_PT174H.grib2 2026-04-11 16:53 1.2M
20260411T12Z_MSC_GDPS_AirTemp_IsbL-0900_LatLon0.15_PT174H.grib2 2026-04-11 16:53 1.2M
20260411T12Z_MSC_GDPS_AirTemp_IsbL-0925_LatLon0.15_PT174H.grib2 2026-04-11 16:53 1.1M
20260411T12Z_MSC_GDPS_AirTemp_IsbL-0950_LatLon0.15_PT174H.grib2 2026-04-11 16:53 1.2M
20260411T12Z_MSC_GDPS_AirTemp_IsbL-0970_LatLon0.15_PT174H.grib2 2026-04-11 16:53 1.2M
20260411T12Z_MSC_GDPS_AirTemp_IsbL-0985_LatLon0.15_PT174H.grib2 2026-04-11 16:53 1.1M
20260411T12Z_MSC_GDPS_AirTemp_IsbL-1000_LatLon0.15_PT174H.grib2 2026-04-11 16:53 1.1M
20260411T12Z_MSC_GDPS_AirTemp_IsbL-1015_LatLon0.15_PT174H.grib2 2026-04-11 16:53 1.1M
20260411T12Z_MSC_GDPS_Albedo_Sfc_LatLon0.15_PT174H.grib2 2026-04-11 16:53 249K
20260411T12Z_MSC_GDPS_CAPE_Sfc_LatLon0.15_PT174H.grib2 2026-04-11 16:53 3.8M
20260411T12Z_MSC_GDPS_CIN_Sfc_LatLon0.15_PT174H.grib2 2026-04-11 16:53 2.8M
20260411T12Z_MSC_GDPS_CloudWater_EAtm_LatLon0.15_PT174H.grib2 2026-04-11 16:53 530K
20260411T12Z_MSC_GDPS_ConvectivePrecip-Accum_Sfc_LatLon0.15_PT174H.grib2 2026-04-11 16:53 3.4M
20260411T12Z_MSC_GDPS_DewPointDepression_AGL-2m_LatLon0.15_PT174H.grib2 2026-04-11 16:53 756K
20260411T12Z_MSC_GDPS_DewPointDepression_IsbL-0010_LatLon0.15_PT174H.grib2 2026-04-11 16:53 1.5K
20260411T12Z_MSC_GDPS_DewPointDepression_IsbL-0020_LatLon0.15_PT174H.grib2 2026-04-11 16:53 52K
20260411T12Z_MSC_GDPS_DewPointDepression_IsbL-0030_LatLon0.15_PT174H.grib2 2026-04-11 16:53 69K
20260411T12Z_MSC_GDPS_DewPointDepression_IsbL-0050_LatLon0.15_PT174H.grib2 2026-04-11 16:53 323K
20260411T12Z_MSC_GDPS_DewPointDepression_IsbL-0100_LatLon0.15_PT174H.grib2 2026-04-11 16:53 372K
20260411T12Z_MSC_GDPS_DewPointDepression_IsbL-0150_LatLon0.15_PT174H.grib2 2026-04-11 16:53 468K
20260411T12Z_MSC_GDPS_DewPointDepression_IsbL-0175_LatLon0.15_PT174H.grib2 2026-04-11 16:53 552K
20260411T12Z_MSC_GDPS_DewPointDepression_IsbL-0200_LatLon0.15_PT174H.grib2 2026-04-11 16:53 630K
20260411T12Z_MSC_GDPS_DewPointDepression_IsbL-0225_LatLon0.15_PT174H.grib2 2026-04-11 16:53 766K
20260411T12Z_MSC_GDPS_DewPointDepression_IsbL-0250_LatLon0.15_PT174H.grib2 2026-04-11 16:53 881K
20260411T12Z_MSC_GDPS_DewPointDepression_IsbL-0275_LatLon0.15_PT174H.grib2 2026-04-11 16:53 895K
20260411T12Z_MSC_GDPS_DewPointDepression_IsbL-0300_LatLon0.15_PT174H.grib2 2026-04-11 16:53 931K
20260411T12Z_MSC_GDPS_DewPointDepression_IsbL-0350_LatLon0.15_PT174H.grib2 2026-04-11 16:53 958K
20260411T12Z_MSC_GDPS_DewPointDepression_IsbL-0400_LatLon0.15_PT174H.grib2 2026-04-11 16:53 1.0M
20260411T12Z_MSC_GDPS_DewPointDepression_IsbL-0450_LatLon0.15_PT174H.grib2 2026-04-11 16:53 1.0M
20260411T12Z_MSC_GDPS_DewPointDepression_IsbL-0500_LatLon0.15_PT174H.grib2 2026-04-11 16:53 1.0M
20260411T12Z_MSC_GDPS_DewPointDepression_IsbL-0550_LatLon0.15_PT174H.grib2 2026-04-11 16:53 1.0M
20260411T12Z_MSC_GDPS_DewPointDepression_IsbL-0600_LatLon0.15_PT174H.grib2 2026-04-11 16:53 1.1M
20260411T12Z_MSC_GDPS_DewPointDepression_IsbL-0650_LatLon0.15_PT174H.grib2 2026-04-11 16:53 1.1M
20260411T12Z_MSC_GDPS_DewPointDepression_IsbL-0700_LatLon0.15_PT174H.grib2 2026-04-11 16:53 1.1M
20260411T12Z_MSC_GDPS_DewPointDepression_IsbL-0750_LatLon0.15_PT174H.grib2 2026-04-11 16:53 1.1M
20260411T12Z_MSC_GDPS_DewPointDepression_IsbL-0800_LatLon0.15_PT174H.grib2 2026-04-11 16:53 1.2M
20260411T12Z_MSC_GDPS_DewPointDepression_IsbL-0850_LatLon0.15_PT174H.grib2 2026-04-11 16:53 1.2M
20260411T12Z_MSC_GDPS_DewPointDepression_IsbL-0875_LatLon0.15_PT174H.grib2 2026-04-11 16:53 1.1M
20260411T12Z_MSC_GDPS_DewPointDepression_IsbL-0900_LatLon0.15_PT174H.grib2 2026-04-11 16:53 1.1M
20260411T12Z_MSC_GDPS_DewPointDepression_IsbL-0925_LatLon0.15_PT174H.grib2 2026-04-11 16:53 1.0M
20260411T12Z_MSC_GDPS_DewPointDepression_IsbL-0950_LatLon0.15_PT174H.grib2 2026-04-11 16:53 1.0M
20260411T12Z_MSC_GDPS_DewPointDepression_IsbL-0970_LatLon0.15_PT174H.grib2 2026-04-11 16:53 1.0M
20260411T12Z_MSC_GDPS_DewPointDepression_IsbL-0985_LatLon0.15_PT174H.grib2 2026-04-11 16:53 1.0M
20260411T12Z_MSC_GDPS_DewPointDepression_IsbL-1000_LatLon0.15_PT174H.grib2 2026-04-11 16:53 1.0M
20260411T12Z_MSC_GDPS_DewPointDepression_IsbL-1015_LatLon0.15_PT174H.grib2 2026-04-11 16:53 915K
20260411T12Z_MSC_GDPS_DewPoint_AGL-2m_LatLon0.15_PT174H.grib2 2026-04-11 16:53 616K
20260411T12Z_MSC_GDPS_DownwardLongwaveRadiationFlux-Accum_Sfc_LatLon0.15_PT174H.grib2 2026-04-11 16:53 642K
20260411T12Z_MSC_GDPS_DownwardShortwaveRadiationFlux-Accum_NTAtm_LatLon0.15_PT174H.grib2 2026-04-11 16:53 260K
20260411T12Z_MSC_GDPS_DownwardShortwaveRadiationFlux-Accum_Sfc_LatLon0.15_PT174H.grib2 2026-04-11 16:53 846K
20260411T12Z_MSC_GDPS_FreezingRain-Accum12h_Sfc_LatLon0.15_PT174H.grib2 2026-04-11 16:53 100K
20260411T12Z_MSC_GDPS_FreezingRain-Accum24h_Sfc_LatLon0.15_PT174H.grib2 2026-04-11 16:53 136K
20260411T12Z_MSC_GDPS_FreezingRain-Accum6h_Sfc_LatLon0.15_PT174H.grib2 2026-04-11 16:53 73K
20260411T12Z_MSC_GDPS_FreezingRain-Accum_Sfc_LatLon0.15_PT174H.grib2 2026-04-11 16:53 289K
20260411T12Z_MSC_GDPS_GeopotentialHeight_IsbL-0001_LatLon0.15_PT174H.grib2 2026-04-11 16:53 525K
20260411T12Z_MSC_GDPS_GeopotentialHeight_IsbL-0005_LatLon0.15_PT174H.grib2 2026-04-11 16:53 506K
20260411T12Z_MSC_GDPS_GeopotentialHeight_IsbL-0010_LatLon0.15_PT174H.grib2 2026-04-11 16:53 434K
20260411T12Z_MSC_GDPS_GeopotentialHeight_IsbL-0020_LatLon0.15_PT174H.grib2 2026-04-11 16:53 575K
20260411T12Z_MSC_GDPS_GeopotentialHeight_IsbL-0030_LatLon0.15_PT174H.grib2 2026-04-11 16:53 577K
20260411T12Z_MSC_GDPS_GeopotentialHeight_IsbL-0050_LatLon0.15_PT174H.grib2 2026-04-11 16:53 581K
20260411T12Z_MSC_GDPS_GeopotentialHeight_IsbL-0100_LatLon0.15_PT174H.grib2 2026-04-11 16:53 617K
20260411T12Z_MSC_GDPS_GeopotentialHeight_IsbL-0150_LatLon0.15_PT174H.grib2 2026-04-11 16:53 632K
20260411T12Z_MSC_GDPS_GeopotentialHeight_IsbL-0175_LatLon0.15_PT174H.grib2 2026-04-11 16:53 633K
20260411T12Z_MSC_GDPS_GeopotentialHeight_IsbL-0200_LatLon0.15_PT174H.grib2 2026-04-11 16:53 636K
20260411T12Z_MSC_GDPS_GeopotentialHeight_IsbL-0225_LatLon0.15_PT174H.grib2 2026-04-11 16:53 639K
20260411T12Z_MSC_GDPS_GeopotentialHeight_IsbL-0250_LatLon0.15_PT174H.grib2 2026-04-11 16:53 638K
20260411T12Z_MSC_GDPS_GeopotentialHeight_IsbL-0275_LatLon0.15_PT174H.grib2 2026-04-11 16:53 640K
20260411T12Z_MSC_GDPS_GeopotentialHeight_IsbL-0300_LatLon0.15_PT174H.grib2 2026-04-11 16:53 639K
20260411T12Z_MSC_GDPS_GeopotentialHeight_IsbL-0350_LatLon0.15_PT174H.grib2 2026-04-11 16:53 628K
20260411T12Z_MSC_GDPS_GeopotentialHeight_IsbL-0400_LatLon0.15_PT174H.grib2 2026-04-11 16:53 620K
20260411T12Z_MSC_GDPS_GeopotentialHeight_IsbL-0450_LatLon0.15_PT174H.grib2 2026-04-11 16:53 541K
20260411T12Z_MSC_GDPS_GeopotentialHeight_IsbL-0500_LatLon0.15_PT174H.grib2 2026-04-11 16:53 531K
20260411T12Z_MSC_GDPS_GeopotentialHeight_IsbL-0550_LatLon0.15_PT174H.grib2 2026-04-11 16:53 693K
20260411T12Z_MSC_GDPS_GeopotentialHeight_IsbL-0600_LatLon0.15_PT174H.grib2 2026-04-11 16:53 688K
20260411T12Z_MSC_GDPS_GeopotentialHeight_IsbL-0650_LatLon0.15_PT174H.grib2 2026-04-11 16:53 686K
20260411T12Z_MSC_GDPS_GeopotentialHeight_IsbL-0700_LatLon0.15_PT174H.grib2 2026-04-11 16:53 683K
20260411T12Z_MSC_GDPS_GeopotentialHeight_IsbL-0750_LatLon0.15_PT174H.grib2 2026-04-11 16:53 692K
20260411T12Z_MSC_GDPS_GeopotentialHeight_IsbL-0800_LatLon0.15_PT174H.grib2 2026-04-11 16:53 703K
20260411T12Z_MSC_GDPS_GeopotentialHeight_IsbL-0850_LatLon0.15_PT174H.grib2 2026-04-11 16:53 709K
20260411T12Z_MSC_GDPS_GeopotentialHeight_IsbL-0875_LatLon0.15_PT174H.grib2 2026-04-11 16:53 718K
20260411T12Z_MSC_GDPS_GeopotentialHeight_IsbL-0900_LatLon0.15_PT174H.grib2 2026-04-11 16:53 723K
20260411T12Z_MSC_GDPS_GeopotentialHeight_IsbL-0925_LatLon0.15_PT174H.grib2 2026-04-11 16:53 733K
20260411T12Z_MSC_GDPS_GeopotentialHeight_IsbL-0950_LatLon0.15_PT174H.grib2 2026-04-11 16:53 738K
20260411T12Z_MSC_GDPS_GeopotentialHeight_IsbL-0970_LatLon0.15_PT174H.grib2 2026-04-11 16:53 752K
20260411T12Z_MSC_GDPS_GeopotentialHeight_IsbL-0985_LatLon0.15_PT174H.grib2 2026-04-11 16:53 768K
20260411T12Z_MSC_GDPS_GeopotentialHeight_IsbL-1000_LatLon0.15_PT174H.grib2 2026-04-11 16:53 789K
20260411T12Z_MSC_GDPS_GeopotentialHeight_IsbL-1015_LatLon0.15_PT174H.grib2 2026-04-11 16:53 812K
20260411T12Z_MSC_GDPS_Humidex_Sfc_LatLon0.15_PT174H.grib2 2026-04-11 16:53 5.3M
20260411T12Z_MSC_GDPS_IcePellets-Accum12h_Sfc_LatLon0.15_PT174H.grib2 2026-04-11 16:53 42K
20260411T12Z_MSC_GDPS_IcePellets-Accum24h_Sfc_LatLon0.15_PT174H.grib2 2026-04-11 16:53 52K
20260411T12Z_MSC_GDPS_IcePellets-Accum6h_Sfc_LatLon0.15_PT174H.grib2 2026-04-11 16:53 31K
20260411T12Z_MSC_GDPS_IcePellets-Accum_Sfc_LatLon0.15_PT174H.grib2 2026-04-11 16:53 175K
20260411T12Z_MSC_GDPS_KIndex_Sfc_LatLon0.15_PT174H.grib2 2026-04-11 16:53 6.5M
20260411T12Z_MSC_GDPS_LatentHeatNetFlux_Sfc_LatLon0.15_PT174H.grib2 2026-04-11 16:53 498K
20260411T12Z_MSC_GDPS_LiftedIndex-MU-VT_IsbL-0500_LatLon0.15_PT174H.grib2 2026-04-11 16:53 5.4M
20260411T12Z_MSC_GDPS_NetLongwaveRadiationFlux-Accum_Sfc_LatLon0.15_PT174H.grib2 2026-04-11 16:53 1.1M
20260411T12Z_MSC_GDPS_NetShortwaveRadiationFlux-Accum_Sfc_LatLon0.15_PT174H.grib2 2026-04-11 16:53 1.1M
20260411T12Z_MSC_GDPS_O3MixingRatio_LatLon0.15_PT174H.grib2 2026-04-11 17:07 2.3M
20260411T12Z_MSC_GDPS_O3_EAtm_LatLon0.15_PT174H.grib2 2026-04-11 17:07 2.4M
20260411T12Z_MSC_GDPS_PlanetaryBoundaryLayerHeight_Sfc_LatLon0.15_PT174H.grib2 2026-04-11 16:53 2.4M
20260411T12Z_MSC_GDPS_Precip-Accum12h_Sfc_LatLon0.15_PT174H.grib2 2026-04-11 16:53 4.0M
20260411T12Z_MSC_GDPS_Precip-Accum24h_Sfc_LatLon0.15_PT174H.grib2 2026-04-11 16:53 4.5M
20260411T12Z_MSC_GDPS_Precip-Accum6h_Sfc_LatLon0.15_PT174H.grib2 2026-04-11 16:53 3.5M
20260411T12Z_MSC_GDPS_Precip-Accum_Sfc_LatLon0.15_PT174H.grib2 2026-04-11 16:53 4.9M
20260411T12Z_MSC_GDPS_PrecipRate_Sfc_LatLon0.15_PT174H.grib2 2026-04-11 16:53 2.9M
20260411T12Z_MSC_GDPS_PrecipType-Instant_Sfc_LatLon0.15_PT174H.grib2 2026-04-11 16:53 1.5M
20260411T12Z_MSC_GDPS_Pressure_MSL_LatLon0.15_PT174H.grib2 2026-04-11 16:53 727K
20260411T12Z_MSC_GDPS_Pressure_PVU-1.5_LatLon0.15_PT174H.grib2 2026-04-11 16:53 5.8M
20260411T12Z_MSC_GDPS_Pressure_PVU-1_LatLon0.15_PT174H.grib2 2026-04-11 16:53 6.0M
20260411T12Z_MSC_GDPS_Pressure_PVU-2_LatLon0.15_PT174H.grib2 2026-04-11 16:53 6.0M
20260411T12Z_MSC_GDPS_Pressure_Sfc_LatLon0.15_PT174H.grib2 2026-04-11 16:53 1.1M
20260411T12Z_MSC_GDPS_RadiativeTemp_Sfc_LatLon0.15_PT174H.grib2 2026-04-11 16:53 675K
20260411T12Z_MSC_GDPS_Rain-Accum12h_Sfc_LatLon0.15_PT174H.grib2 2026-04-11 16:53 2.6M
20260411T12Z_MSC_GDPS_Rain-Accum24h_Sfc_LatLon0.15_PT174H.grib2 2026-04-11 16:53 3.0M
20260411T12Z_MSC_GDPS_Rain-Accum6h_Sfc_LatLon0.15_PT174H.grib2 2026-04-11 16:53 2.2M
20260411T12Z_MSC_GDPS_Rain-Accum_Sfc_LatLon0.15_PT174H.grib2 2026-04-11 16:53 4.0M
20260411T12Z_MSC_GDPS_RelativeHumidity_AGL-2m_LatLon0.15_PT174H.grib2 2026-04-11 16:53 1.0M
20260411T12Z_MSC_GDPS_RelativeHumidity_IsbL-0010_LatLon0.15_PT174H.grib2 2026-04-11 16:53 220K
20260411T12Z_MSC_GDPS_RelativeHumidity_IsbL-0020_LatLon0.15_PT174H.grib2 2026-04-11 16:53 353K
20260411T12Z_MSC_GDPS_RelativeHumidity_IsbL-0030_LatLon0.15_PT174H.grib2 2026-04-11 16:53 372K
20260411T12Z_MSC_GDPS_RelativeHumidity_IsbL-0050_LatLon0.15_PT174H.grib2 2026-04-11 16:53 402K
20260411T12Z_MSC_GDPS_RelativeHumidity_IsbL-0100_LatLon0.15_PT174H.grib2 2026-04-11 16:53 476K
20260411T12Z_MSC_GDPS_RelativeHumidity_IsbL-0150_LatLon0.15_PT174H.grib2 2026-04-11 16:53 657K
20260411T12Z_MSC_GDPS_RelativeHumidity_IsbL-0175_LatLon0.15_PT174H.grib2 2026-04-11 16:53 794K
20260411T12Z_MSC_GDPS_RelativeHumidity_IsbL-0200_LatLon0.15_PT174H.grib2 2026-04-11 16:53 697K
20260411T12Z_MSC_GDPS_RelativeHumidity_IsbL-0225_LatLon0.15_PT174H.grib2 2026-04-11 16:53 788K
20260411T12Z_MSC_GDPS_RelativeHumidity_IsbL-0250_LatLon0.15_PT174H.grib2 2026-04-11 16:53 881K
20260411T12Z_MSC_GDPS_RelativeHumidity_IsbL-0275_LatLon0.15_PT174H.grib2 2026-04-11 16:53 906K
20260411T12Z_MSC_GDPS_RelativeHumidity_IsbL-0300_LatLon0.15_PT174H.grib2 2026-04-11 16:53 948K
20260411T12Z_MSC_GDPS_RelativeHumidity_IsbL-0350_LatLon0.15_PT174H.grib2 2026-04-11 16:53 962K
20260411T12Z_MSC_GDPS_RelativeHumidity_IsbL-0400_LatLon0.15_PT174H.grib2 2026-04-11 16:53 1.0M
20260411T12Z_MSC_GDPS_RelativeHumidity_IsbL-0450_LatLon0.15_PT174H.grib2 2026-04-11 16:53 1.0M
20260411T12Z_MSC_GDPS_RelativeHumidity_IsbL-0500_LatLon0.15_PT174H.grib2 2026-04-11 16:53 1.0M
20260411T12Z_MSC_GDPS_RelativeHumidity_IsbL-0550_LatLon0.15_PT174H.grib2 2026-04-11 16:53 1.0M
20260411T12Z_MSC_GDPS_RelativeHumidity_IsbL-0600_LatLon0.15_PT174H.grib2 2026-04-11 16:53 1.1M
20260411T12Z_MSC_GDPS_RelativeHumidity_IsbL-0650_LatLon0.15_PT174H.grib2 2026-04-11 16:53 1.1M
20260411T12Z_MSC_GDPS_RelativeHumidity_IsbL-0700_LatLon0.15_PT174H.grib2 2026-04-11 16:53 1.1M
20260411T12Z_MSC_GDPS_RelativeHumidity_IsbL-0750_LatLon0.15_PT174H.grib2 2026-04-11 16:53 1.1M
20260411T12Z_MSC_GDPS_RelativeHumidity_IsbL-0800_LatLon0.15_PT174H.grib2 2026-04-11 16:53 1.2M
20260411T12Z_MSC_GDPS_RelativeHumidity_IsbL-0850_LatLon0.15_PT174H.grib2 2026-04-11 16:53 1.3M
20260411T12Z_MSC_GDPS_RelativeHumidity_IsbL-0875_LatLon0.15_PT174H.grib2 2026-04-11 16:53 1.3M
20260411T12Z_MSC_GDPS_RelativeHumidity_IsbL-0900_LatLon0.15_PT174H.grib2 2026-04-11 16:53 1.2M
20260411T12Z_MSC_GDPS_RelativeHumidity_IsbL-0925_LatLon0.15_PT174H.grib2 2026-04-11 16:53 1.2M
20260411T12Z_MSC_GDPS_RelativeHumidity_IsbL-0950_LatLon0.15_PT174H.grib2 2026-04-11 16:53 1.2M
20260411T12Z_MSC_GDPS_RelativeHumidity_IsbL-0970_LatLon0.15_PT174H.grib2 2026-04-11 16:53 1.2M
20260411T12Z_MSC_GDPS_RelativeHumidity_IsbL-0985_LatLon0.15_PT174H.grib2 2026-04-11 16:53 1.2M
20260411T12Z_MSC_GDPS_RelativeHumidity_IsbL-1000_LatLon0.15_PT174H.grib2 2026-04-11 16:53 1.1M
20260411T12Z_MSC_GDPS_RelativeHumidity_IsbL-1015_LatLon0.15_PT174H.grib2 2026-04-11 16:53 1.0M
20260411T12Z_MSC_GDPS_RelativeVorticity_IsbL-0200_LatLon0.15_PT174H.grib2 2026-04-11 16:53 1.5M
20260411T12Z_MSC_GDPS_RelativeVorticity_IsbL-0250_LatLon0.15_PT174H.grib2 2026-04-11 16:53 1.3M
20260411T12Z_MSC_GDPS_RelativeVorticity_IsbL-0500_LatLon0.15_PT174H.grib2 2026-04-11 16:53 1.5M
20260411T12Z_MSC_GDPS_RelativeVorticity_IsbL-0700_LatLon0.15_PT174H.grib2 2026-04-11 16:53 1.6M
20260411T12Z_MSC_GDPS_RelativeVorticity_IsbL-0850_LatLon0.15_PT174H.grib2 2026-04-11 16:53 1.6M
20260411T12Z_MSC_GDPS_Runoff-Accum_Sfc_LatLon0.15_PT174H.grib2 2026-04-11 16:53 136K
20260411T12Z_MSC_GDPS_SensibleHeatNetFlux_Sfc_LatLon0.15_PT174H.grib2 2026-04-11 16:53 615K
20260411T12Z_MSC_GDPS_ShowalterIndex_IsbL-0500_LatLon0.15_PT174H.grib2 2026-04-11 16:53 6.2M
20260411T12Z_MSC_GDPS_Snow-Accum12h_Sfc_LatLon0.15_PT174H.grib2 2026-04-11 16:53 1.5M
20260411T12Z_MSC_GDPS_Snow-Accum24h_Sfc_LatLon0.15_PT174H.grib2 2026-04-11 16:53 1.7M
20260411T12Z_MSC_GDPS_Snow-Accum6h_Sfc_LatLon0.15_PT174H.grib2 2026-04-11 16:53 1.4M
20260411T12Z_MSC_GDPS_Snow-Accum_Sfc_LatLon0.15_PT174H.grib2 2026-04-11 16:53 1.9M
20260411T12Z_MSC_GDPS_SnowDensity_Sfc_LatLon0.15_PT174H.grib2 2026-04-11 16:53 270K
20260411T12Z_MSC_GDPS_SnowDepth_Sfc_LatLon0.15_PT174H.grib2 2026-04-11 16:53 1.8M
20260411T12Z_MSC_GDPS_SoilTemp_DBS-0to10cm_LatLon0.15_PT174H.grib2 2026-04-11 16:53 514K
20260411T12Z_MSC_GDPS_SoilTemp_Sfc_LatLon0.15_PT174H.grib2 2026-04-11 16:53 584K
20260411T12Z_MSC_GDPS_SoilVolumetricIceContent_Sfc_LatLon0.15_PT174H.grib2 2026-04-11 16:53 224K
20260411T12Z_MSC_GDPS_SoilVolumetricWaterContent_DBS-0to10cm_LatLon0.15_PT174H.grib2 2026-04-11 16:53 552K
20260411T12Z_MSC_GDPS_SoilVolumetricWaterContent_DBS-0to1cm_LatLon0.15_PT174H.grib2 2026-04-11 16:53 649K
20260411T12Z_MSC_GDPS_SpecificHumidity_AGL-120m_LatLon0.15_PT174H.grib2 2026-04-11 16:53 1.1M
20260411T12Z_MSC_GDPS_SpecificHumidity_AGL-2m_LatLon0.15_PT174H.grib2 2026-04-11 16:53 1.2M
20260411T12Z_MSC_GDPS_SpecificHumidity_AGL-40m_LatLon0.15_PT174H.grib2 2026-04-11 16:53 1.1M
20260411T12Z_MSC_GDPS_SpecificHumidity_AGL-80m_LatLon0.15_PT174H.grib2 2026-04-11 16:53 1.1M
20260411T12Z_MSC_GDPS_SpecificHumidity_IsbL-0001_LatLon0.15_PT174H.grib2 2026-04-11 16:53 1.1M
20260411T12Z_MSC_GDPS_SpecificHumidity_IsbL-0005_LatLon0.15_PT174H.grib2 2026-04-11 16:53 1.0M
20260411T12Z_MSC_GDPS_SpecificHumidity_IsbL-0010_LatLon0.15_PT174H.grib2 2026-04-11 16:53 1.2M
20260411T12Z_MSC_GDPS_SpecificHumidity_IsbL-0020_LatLon0.15_PT174H.grib2 2026-04-11 16:53 1.2M
20260411T12Z_MSC_GDPS_SpecificHumidity_IsbL-0030_LatLon0.15_PT174H.grib2 2026-04-11 16:53 1.5M
20260411T12Z_MSC_GDPS_SpecificHumidity_IsbL-0050_LatLon0.15_PT174H.grib2 2026-04-11 16:53 1.2M
20260411T12Z_MSC_GDPS_SpecificHumidity_IsbL-0100_LatLon0.15_PT174H.grib2 2026-04-11 16:53 1.2M
20260411T12Z_MSC_GDPS_SpecificHumidity_IsbL-0150_LatLon0.15_PT174H.grib2 2026-04-11 16:53 1.3M
20260411T12Z_MSC_GDPS_SpecificHumidity_IsbL-0175_LatLon0.15_PT174H.grib2 2026-04-11 16:53 1.3M
20260411T12Z_MSC_GDPS_SpecificHumidity_IsbL-0200_LatLon0.15_PT174H.grib2 2026-04-11 16:53 1.3M
20260411T12Z_MSC_GDPS_SpecificHumidity_IsbL-0225_LatLon0.15_PT174H.grib2 2026-04-11 16:53 1.3M
20260411T12Z_MSC_GDPS_SpecificHumidity_IsbL-0250_LatLon0.15_PT174H.grib2 2026-04-11 16:53 1.2M
20260411T12Z_MSC_GDPS_SpecificHumidity_IsbL-0275_LatLon0.15_PT174H.grib2 2026-04-11 16:53 1.3M
20260411T12Z_MSC_GDPS_SpecificHumidity_IsbL-0300_LatLon0.15_PT174H.grib2 2026-04-11 16:53 1.3M
20260411T12Z_MSC_GDPS_SpecificHumidity_IsbL-0350_LatLon0.15_PT174H.grib2 2026-04-11 16:53 1.2M
20260411T12Z_MSC_GDPS_SpecificHumidity_IsbL-0400_LatLon0.15_PT174H.grib2 2026-04-11 16:53 1.5M
20260411T12Z_MSC_GDPS_SpecificHumidity_IsbL-0450_LatLon0.15_PT174H.grib2 2026-04-11 16:53 1.3M
20260411T12Z_MSC_GDPS_SpecificHumidity_IsbL-0500_LatLon0.15_PT174H.grib2 2026-04-11 16:53 1.4M
20260411T12Z_MSC_GDPS_SpecificHumidity_IsbL-0550_LatLon0.15_PT174H.grib2 2026-04-11 16:53 1.6M
20260411T12Z_MSC_GDPS_SpecificHumidity_IsbL-0600_LatLon0.15_PT174H.grib2 2026-04-11 16:53 1.4M
20260411T12Z_MSC_GDPS_SpecificHumidity_IsbL-0650_LatLon0.15_PT174H.grib2 2026-04-11 16:53 1.5M
20260411T12Z_MSC_GDPS_SpecificHumidity_IsbL-0700_LatLon0.15_PT174H.grib2 2026-04-11 16:53 1.6M
20260411T12Z_MSC_GDPS_SpecificHumidity_IsbL-0750_LatLon0.15_PT174H.grib2 2026-04-11 16:53 1.7M
20260411T12Z_MSC_GDPS_SpecificHumidity_IsbL-0800_LatLon0.15_PT174H.grib2 2026-04-11 16:53 1.8M
20260411T12Z_MSC_GDPS_SpecificHumidity_IsbL-0850_LatLon0.15_PT174H.grib2 2026-04-11 16:53 1.9M
20260411T12Z_MSC_GDPS_SpecificHumidity_IsbL-0875_LatLon0.15_PT174H.grib2 2026-04-11 16:53 1.9M
20260411T12Z_MSC_GDPS_SpecificHumidity_IsbL-0900_LatLon0.15_PT174H.grib2 2026-04-11 16:53 1.9M
20260411T12Z_MSC_GDPS_SpecificHumidity_IsbL-0925_LatLon0.15_PT174H.grib2 2026-04-11 16:53 1.6M
20260411T12Z_MSC_GDPS_SpecificHumidity_IsbL-0950_LatLon0.15_PT174H.grib2 2026-04-11 16:53 1.5M
20260411T12Z_MSC_GDPS_SpecificHumidity_IsbL-0970_LatLon0.15_PT174H.grib2 2026-04-11 16:53 1.5M
20260411T12Z_MSC_GDPS_SpecificHumidity_IsbL-0985_LatLon0.15_PT174H.grib2 2026-04-11 16:53 1.5M
20260411T12Z_MSC_GDPS_SpecificHumidity_IsbL-1000_LatLon0.15_PT174H.grib2 2026-04-11 16:53 1.5M
20260411T12Z_MSC_GDPS_SpecificHumidity_IsbL-1015_LatLon0.15_PT174H.grib2 2026-04-11 16:53 1.4M
20260411T12Z_MSC_GDPS_SpecificHumidity_Sfc_LatLon0.15_PT174H.grib2 2026-04-11 16:53 660K
20260411T12Z_MSC_GDPS_Thickness_IsbL-0850to0700_LatLon0.15_PT174H.grib2 2026-04-11 16:53 471K
20260411T12Z_MSC_GDPS_Thickness_IsbL-1000to0500_LatLon0.15_PT174H.grib2 2026-04-11 16:53 375K
20260411T12Z_MSC_GDPS_Thickness_IsbL-1000to0850_LatLon0.15_PT174H.grib2 2026-04-11 16:53 494K
20260411T12Z_MSC_GDPS_TotalCloudCover_Sfc_LatLon0.15_PT174H.grib2 2026-04-11 16:53 818K
20260411T12Z_MSC_GDPS_TotalTotalsIndex_Sfc_LatLon0.15_PT174H.grib2 2026-04-11 16:53 6.2M
20260411T12Z_MSC_GDPS_UVIndex-ClearSky-Max24h_Sfc_LatLon0.15_PT174H.grib2 2026-04-11 17:07 2.2M
20260411T12Z_MSC_GDPS_UVIndex-ClearSky_Sfc_LatLon0.15_PT174H.grib2 2026-04-11 17:07 1.0M
20260411T12Z_MSC_GDPS_UVIndex-Max24h_Sfc_LatLon0.15_PT174H.grib2 2026-04-11 17:07 3.2M
20260411T12Z_MSC_GDPS_UVIndex_Sfc_LatLon0.15_PT174H.grib2 2026-04-11 17:07 1.5M
20260411T12Z_MSC_GDPS_UpwardLongwaveRadiationFlux_NTAtm_LatLon0.15_PT174H.grib2 2026-04-11 16:53 838K
20260411T12Z_MSC_GDPS_VerticalVelocity_IsbL-0200_LatLon0.15_PT174H.grib2 2026-04-11 16:53 928K
20260411T12Z_MSC_GDPS_VerticalVelocity_IsbL-0250_LatLon0.15_PT174H.grib2 2026-04-11 16:53 1.1M
20260411T12Z_MSC_GDPS_VerticalVelocity_IsbL-0500_LatLon0.15_PT174H.grib2 2026-04-11 16:53 1.0M
20260411T12Z_MSC_GDPS_VerticalVelocity_IsbL-0600_LatLon0.15_PT174H.grib2 2026-04-11 16:53 1.1M
20260411T12Z_MSC_GDPS_VerticalVelocity_IsbL-0700_LatLon0.15_PT174H.grib2 2026-04-11 16:53 1.1M
20260411T12Z_MSC_GDPS_VerticalVelocity_IsbL-0850_LatLon0.15_PT174H.grib2 2026-04-11 16:53 1.6M
20260411T12Z_MSC_GDPS_WindChill_Sfc_LatLon0.15_PT174H.grib2 2026-04-11 16:53 5.3M
20260411T12Z_MSC_GDPS_WindDir_AGL-10m_LatLon0.15_PT174H.grib2 2026-04-11 16:53 1.4M
20260411T12Z_MSC_GDPS_WindDir_AGL-120m_LatLon0.15_PT174H.grib2 2026-04-11 16:53 1.4M
20260411T12Z_MSC_GDPS_WindDir_AGL-40m_LatLon0.15_PT174H.grib2 2026-04-11 16:53 1.4M
20260411T12Z_MSC_GDPS_WindDir_AGL-80m_LatLon0.15_PT174H.grib2 2026-04-11 16:53 1.4M
20260411T12Z_MSC_GDPS_WindDir_IsbL-0001_LatLon0.15_PT174H.grib2 2026-04-11 16:53 640K
20260411T12Z_MSC_GDPS_WindDir_IsbL-0005_LatLon0.15_PT174H.grib2 2026-04-11 16:53 790K
20260411T12Z_MSC_GDPS_WindDir_IsbL-0010_LatLon0.15_PT174H.grib2 2026-04-11 16:53 835K
20260411T12Z_MSC_GDPS_WindDir_IsbL-0020_LatLon0.15_PT174H.grib2 2026-04-11 16:53 913K
20260411T12Z_MSC_GDPS_WindDir_IsbL-0030_LatLon0.15_PT174H.grib2 2026-04-11 16:53 882K
20260411T12Z_MSC_GDPS_WindDir_IsbL-0050_LatLon0.15_PT174H.grib2 2026-04-11 16:53 933K
20260411T12Z_MSC_GDPS_WindDir_IsbL-0100_LatLon0.15_PT174H.grib2 2026-04-11 16:53 1.0M
20260411T12Z_MSC_GDPS_WindDir_IsbL-0150_LatLon0.15_PT174H.grib2 2026-04-11 16:53 1.0M
20260411T12Z_MSC_GDPS_WindDir_IsbL-0175_LatLon0.15_PT174H.grib2 2026-04-11 16:53 1.0M
20260411T12Z_MSC_GDPS_WindDir_IsbL-0200_LatLon0.15_PT174H.grib2 2026-04-11 16:53 1.1M
20260411T12Z_MSC_GDPS_WindDir_IsbL-0225_LatLon0.15_PT174H.grib2 2026-04-11 16:53 1.1M
20260411T12Z_MSC_GDPS_WindDir_IsbL-0250_LatLon0.15_PT174H.grib2 2026-04-11 16:53 1.1M
20260411T12Z_MSC_GDPS_WindDir_IsbL-0275_LatLon0.15_PT174H.grib2 2026-04-11 16:53 1.2M
20260411T12Z_MSC_GDPS_WindDir_IsbL-0300_LatLon0.15_PT174H.grib2 2026-04-11 16:53 1.2M
20260411T12Z_MSC_GDPS_WindDir_IsbL-0350_LatLon0.15_PT174H.grib2 2026-04-11 16:53 1.2M
20260411T12Z_MSC_GDPS_WindDir_IsbL-0400_LatLon0.15_PT174H.grib2 2026-04-11 16:53 1.3M
20260411T12Z_MSC_GDPS_WindDir_IsbL-0450_LatLon0.15_PT174H.grib2 2026-04-11 16:53 1.3M
20260411T12Z_MSC_GDPS_WindDir_IsbL-0500_LatLon0.15_PT174H.grib2 2026-04-11 16:53 1.4M
20260411T12Z_MSC_GDPS_WindDir_IsbL-0550_LatLon0.15_PT174H.grib2 2026-04-11 16:53 1.4M
20260411T12Z_MSC_GDPS_WindDir_IsbL-0600_LatLon0.15_PT174H.grib2 2026-04-11 16:53 1.5M
20260411T12Z_MSC_GDPS_WindDir_IsbL-0650_LatLon0.15_PT174H.grib2 2026-04-11 16:53 1.6M
20260411T12Z_MSC_GDPS_WindDir_IsbL-0700_LatLon0.15_PT174H.grib2 2026-04-11 16:53 1.7M
20260411T12Z_MSC_GDPS_WindDir_IsbL-0750_LatLon0.15_PT174H.grib2 2026-04-11 16:53 1.7M
20260411T12Z_MSC_GDPS_WindDir_IsbL-0800_LatLon0.15_PT174H.grib2 2026-04-11 16:53 1.9M
20260411T12Z_MSC_GDPS_WindDir_IsbL-0850_LatLon0.15_PT174H.grib2 2026-04-11 16:53 2.0M
20260411T12Z_MSC_GDPS_WindDir_IsbL-0875_LatLon0.15_PT174H.grib2 2026-04-11 16:53 2.0M
20260411T12Z_MSC_GDPS_WindDir_IsbL-0900_LatLon0.15_PT174H.grib2 2026-04-11 16:53 2.0M
20260411T12Z_MSC_GDPS_WindDir_IsbL-0925_LatLon0.15_PT174H.grib2 2026-04-11 16:53 2.0M
20260411T12Z_MSC_GDPS_WindDir_IsbL-0950_LatLon0.15_PT174H.grib2 2026-04-11 16:53 2.0M
20260411T12Z_MSC_GDPS_WindDir_IsbL-0970_LatLon0.15_PT174H.grib2 2026-04-11 16:53 2.0M
20260411T12Z_MSC_GDPS_WindDir_IsbL-0985_LatLon0.15_PT174H.grib2 2026-04-11 16:53 2.1M
20260411T12Z_MSC_GDPS_WindDir_IsbL-1000_LatLon0.15_PT174H.grib2 2026-04-11 16:53 2.1M
20260411T12Z_MSC_GDPS_WindDir_IsbL-1015_LatLon0.15_PT174H.grib2 2026-04-11 16:53 2.1M
20260411T12Z_MSC_GDPS_WindGust-Max_AGL-10m_LatLon0.15_PT174H.grib2 2026-04-11 16:53 2.3M
20260411T12Z_MSC_GDPS_WindGust-Min_AGL-10m_LatLon0.15_PT174H.grib2 2026-04-11 16:53 2.2M
20260411T12Z_MSC_GDPS_WindGust_AGL-10m_LatLon0.15_PT174H.grib2 2026-04-11 16:53 2.2M
20260411T12Z_MSC_GDPS_WindSpeed_AGL-10m_LatLon0.15_PT174H.grib2 2026-04-11 16:53 1.1M
20260411T12Z_MSC_GDPS_WindSpeed_AGL-120m_LatLon0.15_PT174H.grib2 2026-04-11 16:53 1.3M
20260411T12Z_MSC_GDPS_WindSpeed_AGL-40m_LatLon0.15_PT174H.grib2 2026-04-11 16:53 1.2M
20260411T12Z_MSC_GDPS_WindSpeed_AGL-80m_LatLon0.15_PT174H.grib2 2026-04-11 16:53 1.2M
20260411T12Z_MSC_GDPS_WindSpeed_IsbL-0001_LatLon0.15_PT174H.grib2 2026-04-11 16:53 633K
20260411T12Z_MSC_GDPS_WindSpeed_IsbL-0005_LatLon0.15_PT174H.grib2 2026-04-11 16:53 681K
20260411T12Z_MSC_GDPS_WindSpeed_IsbL-0010_LatLon0.15_PT174H.grib2 2026-04-11 16:53 619K
20260411T12Z_MSC_GDPS_WindSpeed_IsbL-0020_LatLon0.15_PT174H.grib2 2026-04-11 16:53 855K
20260411T12Z_MSC_GDPS_WindSpeed_IsbL-0030_LatLon0.15_PT174H.grib2 2026-04-11 16:53 850K
20260411T12Z_MSC_GDPS_WindSpeed_IsbL-0050_LatLon0.15_PT174H.grib2 2026-04-11 16:53 1.0M
20260411T12Z_MSC_GDPS_WindSpeed_IsbL-0100_LatLon0.15_PT174H.grib2 2026-04-11 16:53 1.1M
20260411T12Z_MSC_GDPS_WindSpeed_IsbL-0150_LatLon0.15_PT174H.grib2 2026-04-11 16:53 1.0M
20260411T12Z_MSC_GDPS_WindSpeed_IsbL-0175_LatLon0.15_PT174H.grib2 2026-04-11 16:53 1.0M
20260411T12Z_MSC_GDPS_WindSpeed_IsbL-0200_LatLon0.15_PT174H.grib2 2026-04-11 16:53 1.1M
20260411T12Z_MSC_GDPS_WindSpeed_IsbL-0225_LatLon0.15_PT174H.grib2 2026-04-11 16:53 1.1M
20260411T12Z_MSC_GDPS_WindSpeed_IsbL-0250_LatLon0.15_PT174H.grib2 2026-04-11 16:53 1.1M
20260411T12Z_MSC_GDPS_WindSpeed_IsbL-0275_LatLon0.15_PT174H.grib2 2026-04-11 16:53 1.1M
20260411T12Z_MSC_GDPS_WindSpeed_IsbL-0300_LatLon0.15_PT174H.grib2 2026-04-11 16:53 1.1M
20260411T12Z_MSC_GDPS_WindSpeed_IsbL-0350_LatLon0.15_PT174H.grib2 2026-04-11 16:53 1.1M
20260411T12Z_MSC_GDPS_WindSpeed_IsbL-0400_LatLon0.15_PT174H.grib2 2026-04-11 16:53 1.1M
20260411T12Z_MSC_GDPS_WindSpeed_IsbL-0450_LatLon0.15_PT174H.grib2 2026-04-11 16:53 1.1M
20260411T12Z_MSC_GDPS_WindSpeed_IsbL-0500_LatLon0.15_PT174H.grib2 2026-04-11 16:53 1.1M
20260411T12Z_MSC_GDPS_WindSpeed_IsbL-0550_LatLon0.15_PT174H.grib2 2026-04-11 16:53 1.1M
20260411T12Z_MSC_GDPS_WindSpeed_IsbL-0600_LatLon0.15_PT174H.grib2 2026-04-11 16:53 1.4M
20260411T12Z_MSC_GDPS_WindSpeed_IsbL-0650_LatLon0.15_PT174H.grib2 2026-04-11 16:53 1.4M
20260411T12Z_MSC_GDPS_WindSpeed_IsbL-0700_LatLon0.15_PT174H.grib2 2026-04-11 16:53 1.5M
20260411T12Z_MSC_GDPS_WindSpeed_IsbL-0750_LatLon0.15_PT174H.grib2 2026-04-11 16:53 1.6M
20260411T12Z_MSC_GDPS_WindSpeed_IsbL-0800_LatLon0.15_PT174H.grib2 2026-04-11 16:53 1.6M
20260411T12Z_MSC_GDPS_WindSpeed_IsbL-0850_LatLon0.15_PT174H.grib2 2026-04-11 16:53 1.7M
20260411T12Z_MSC_GDPS_WindSpeed_IsbL-0875_LatLon0.15_PT174H.grib2 2026-04-11 16:53 1.8M
20260411T12Z_MSC_GDPS_WindSpeed_IsbL-0900_LatLon0.15_PT174H.grib2 2026-04-11 16:53 1.9M
20260411T12Z_MSC_GDPS_WindSpeed_IsbL-0925_LatLon0.15_PT174H.grib2 2026-04-11 16:53 1.9M
20260411T12Z_MSC_GDPS_WindSpeed_IsbL-0950_LatLon0.15_PT174H.grib2 2026-04-11 16:53 1.9M
20260411T12Z_MSC_GDPS_WindSpeed_IsbL-0970_LatLon0.15_PT174H.grib2 2026-04-11 16:53 1.9M
20260411T12Z_MSC_GDPS_WindSpeed_IsbL-0985_LatLon0.15_PT174H.grib2 2026-04-11 16:53 1.9M
20260411T12Z_MSC_GDPS_WindSpeed_IsbL-1000_LatLon0.15_PT174H.grib2 2026-04-11 16:53 1.9M
20260411T12Z_MSC_GDPS_WindSpeed_IsbL-1015_LatLon0.15_PT174H.grib2 2026-04-11 16:53 1.8M
20260411T12Z_MSC_GDPS_WindU_AGL-10m_LatLon0.15_PT174H.grib2 2026-04-11 16:53 1.6M
20260411T12Z_MSC_GDPS_WindU_AGL-120m_LatLon0.15_PT174H.grib2 2026-04-11 16:53 1.0M
20260411T12Z_MSC_GDPS_WindU_AGL-40m_LatLon0.15_PT174H.grib2 2026-04-11 16:53 1.0M
20260411T12Z_MSC_GDPS_WindU_AGL-80m_LatLon0.15_PT174H.grib2 2026-04-11 16:53 1.0M
20260411T12Z_MSC_GDPS_WindU_IsbL-0001_LatLon0.15_PT174H.grib2 2026-04-11 16:53 638K
20260411T12Z_MSC_GDPS_WindU_IsbL-0005_LatLon0.15_PT174H.grib2 2026-04-11 16:53 682K
20260411T12Z_MSC_GDPS_WindU_IsbL-0010_LatLon0.15_PT174H.grib2 2026-04-11 16:53 696K
20260411T12Z_MSC_GDPS_WindU_IsbL-0020_LatLon0.15_PT174H.grib2 2026-04-11 16:53 733K
20260411T12Z_MSC_GDPS_WindU_IsbL-0030_LatLon0.15_PT174H.grib2 2026-04-11 16:53 731K
20260411T12Z_MSC_GDPS_WindU_IsbL-0050_LatLon0.15_PT174H.grib2 2026-04-11 16:53 700K
20260411T12Z_MSC_GDPS_WindU_IsbL-0100_LatLon0.15_PT174H.grib2 2026-04-11 16:53 923K
20260411T12Z_MSC_GDPS_WindU_IsbL-0150_LatLon0.15_PT174H.grib2 2026-04-11 16:53 1.0M
20260411T12Z_MSC_GDPS_WindU_IsbL-0175_LatLon0.15_PT174H.grib2 2026-04-11 16:53 1.0M
20260411T12Z_MSC_GDPS_WindU_IsbL-0200_LatLon0.15_PT174H.grib2 2026-04-11 16:53 1.1M
20260411T12Z_MSC_GDPS_WindU_IsbL-0225_LatLon0.15_PT174H.grib2 2026-04-11 16:53 1.1M
20260411T12Z_MSC_GDPS_WindU_IsbL-0250_LatLon0.15_PT174H.grib2 2026-04-11 16:53 1.1M
20260411T12Z_MSC_GDPS_WindU_IsbL-0275_LatLon0.15_PT174H.grib2 2026-04-11 16:53 1.1M
20260411T12Z_MSC_GDPS_WindU_IsbL-0300_LatLon0.15_PT174H.grib2 2026-04-11 16:53 879K
20260411T12Z_MSC_GDPS_WindU_IsbL-0350_LatLon0.15_PT174H.grib2 2026-04-11 16:53 891K
20260411T12Z_MSC_GDPS_WindU_IsbL-0400_LatLon0.15_PT174H.grib2 2026-04-11 16:53 1.1M
20260411T12Z_MSC_GDPS_WindU_IsbL-0450_LatLon0.15_PT174H.grib2 2026-04-11 16:53 1.1M
20260411T12Z_MSC_GDPS_WindU_IsbL-0500_LatLon0.15_PT174H.grib2 2026-04-11 16:53 1.1M
20260411T12Z_MSC_GDPS_WindU_IsbL-0550_LatLon0.15_PT174H.grib2 2026-04-11 16:53 1.1M
20260411T12Z_MSC_GDPS_WindU_IsbL-0600_LatLon0.15_PT174H.grib2 2026-04-11 16:53 1.1M
20260411T12Z_MSC_GDPS_WindU_IsbL-0650_LatLon0.15_PT174H.grib2 2026-04-11 16:53 1.2M
20260411T12Z_MSC_GDPS_WindU_IsbL-0700_LatLon0.15_PT174H.grib2 2026-04-11 16:53 1.2M
20260411T12Z_MSC_GDPS_WindU_IsbL-0750_LatLon0.15_PT174H.grib2 2026-04-11 16:53 1.3M
20260411T12Z_MSC_GDPS_WindU_IsbL-0800_LatLon0.15_PT174H.grib2 2026-04-11 16:53 1.3M
20260411T12Z_MSC_GDPS_WindU_IsbL-0850_LatLon0.15_PT174H.grib2 2026-04-11 16:53 1.4M
20260411T12Z_MSC_GDPS_WindU_IsbL-0875_LatLon0.15_PT174H.grib2 2026-04-11 16:53 1.5M
20260411T12Z_MSC_GDPS_WindU_IsbL-0900_LatLon0.15_PT174H.grib2 2026-04-11 16:53 1.5M
20260411T12Z_MSC_GDPS_WindU_IsbL-0925_LatLon0.15_PT174H.grib2 2026-04-11 16:53 1.4M
20260411T12Z_MSC_GDPS_WindU_IsbL-0950_LatLon0.15_PT174H.grib2 2026-04-11 16:53 1.4M
20260411T12Z_MSC_GDPS_WindU_IsbL-0970_LatLon0.15_PT174H.grib2 2026-04-11 16:53 1.4M
20260411T12Z_MSC_GDPS_WindU_IsbL-0985_LatLon0.15_PT174H.grib2 2026-04-11 16:53 1.4M
20260411T12Z_MSC_GDPS_WindU_IsbL-1000_LatLon0.15_PT174H.grib2 2026-04-11 16:53 1.4M
20260411T12Z_MSC_GDPS_WindU_IsbL-1015_LatLon0.15_PT174H.grib2 2026-04-11 16:53 1.4M
20260411T12Z_MSC_GDPS_WindV_AGL-10m_LatLon0.15_PT174H.grib2 2026-04-11 16:53 1.3M
20260411T12Z_MSC_GDPS_WindV_AGL-120m_LatLon0.15_PT174H.grib2 2026-04-11 16:53 1.0M
20260411T12Z_MSC_GDPS_WindV_AGL-40m_LatLon0.15_PT174H.grib2 2026-04-11 16:53 1.0M
20260411T12Z_MSC_GDPS_WindV_AGL-80m_LatLon0.15_PT174H.grib2 2026-04-11 16:53 1.0M
20260411T12Z_MSC_GDPS_WindV_IsbL-0001_LatLon0.15_PT174H.grib2 2026-04-11 16:53 692K
20260411T12Z_MSC_GDPS_WindV_IsbL-0005_LatLon0.15_PT174H.grib2 2026-04-11 16:53 769K
20260411T12Z_MSC_GDPS_WindV_IsbL-0010_LatLon0.15_PT174H.grib2 2026-04-11 16:53 620K
20260411T12Z_MSC_GDPS_WindV_IsbL-0020_LatLon0.15_PT174H.grib2 2026-04-11 16:53 848K
20260411T12Z_MSC_GDPS_WindV_IsbL-0030_LatLon0.15_PT174H.grib2 2026-04-11 16:53 848K
20260411T12Z_MSC_GDPS_WindV_IsbL-0050_LatLon0.15_PT174H.grib2 2026-04-11 16:53 898K
20260411T12Z_MSC_GDPS_WindV_IsbL-0100_LatLon0.15_PT174H.grib2 2026-04-11 16:53 849K
20260411T12Z_MSC_GDPS_WindV_IsbL-0150_LatLon0.15_PT174H.grib2 2026-04-11 16:53 1.0M
20260411T12Z_MSC_GDPS_WindV_IsbL-0175_LatLon0.15_PT174H.grib2 2026-04-11 16:53 1.0M
20260411T12Z_MSC_GDPS_WindV_IsbL-0200_LatLon0.15_PT174H.grib2 2026-04-11 16:53 898K
20260411T12Z_MSC_GDPS_WindV_IsbL-0225_LatLon0.15_PT174H.grib2 2026-04-11 16:53 909K
20260411T12Z_MSC_GDPS_WindV_IsbL-0250_LatLon0.15_PT174H.grib2 2026-04-11 16:53 914K
20260411T12Z_MSC_GDPS_WindV_IsbL-0275_LatLon0.15_PT174H.grib2 2026-04-11 16:53 884K
20260411T12Z_MSC_GDPS_WindV_IsbL-0300_LatLon0.15_PT174H.grib2 2026-04-11 16:53 872K
20260411T12Z_MSC_GDPS_WindV_IsbL-0350_LatLon0.15_PT174H.grib2 2026-04-11 16:53 882K
20260411T12Z_MSC_GDPS_WindV_IsbL-0400_LatLon0.15_PT174H.grib2 2026-04-11 16:53 877K
20260411T12Z_MSC_GDPS_WindV_IsbL-0450_LatLon0.15_PT174H.grib2 2026-04-11 16:53 876K
20260411T12Z_MSC_GDPS_WindV_IsbL-0500_LatLon0.15_PT174H.grib2 2026-04-11 16:53 1.1M
20260411T12Z_MSC_GDPS_WindV_IsbL-0550_LatLon0.15_PT174H.grib2 2026-04-11 16:53 1.1M
20260411T12Z_MSC_GDPS_WindV_IsbL-0600_LatLon0.15_PT174H.grib2 2026-04-11 16:53 1.1M
20260411T12Z_MSC_GDPS_WindV_IsbL-0650_LatLon0.15_PT174H.grib2 2026-04-11 16:53 1.2M
20260411T12Z_MSC_GDPS_WindV_IsbL-0700_LatLon0.15_PT174H.grib2 2026-04-11 16:53 1.2M
20260411T12Z_MSC_GDPS_WindV_IsbL-0750_LatLon0.15_PT174H.grib2 2026-04-11 16:53 1.3M
20260411T12Z_MSC_GDPS_WindV_IsbL-0800_LatLon0.15_PT174H.grib2 2026-04-11 16:53 1.3M
20260411T12Z_MSC_GDPS_WindV_IsbL-0850_LatLon0.15_PT174H.grib2 2026-04-11 16:53 1.4M
20260411T12Z_MSC_GDPS_WindV_IsbL-0875_LatLon0.15_PT174H.grib2 2026-04-11 16:53 1.4M
20260411T12Z_MSC_GDPS_WindV_IsbL-0900_LatLon0.15_PT174H.grib2 2026-04-11 16:53 1.5M
20260411T12Z_MSC_GDPS_WindV_IsbL-0925_LatLon0.15_PT174H.grib2 2026-04-11 16:53 1.5M
20260411T12Z_MSC_GDPS_WindV_IsbL-0950_LatLon0.15_PT174H.grib2 2026-04-11 16:53 1.4M
20260411T12Z_MSC_GDPS_WindV_IsbL-0970_LatLon0.15_PT174H.grib2 2026-04-11 16:53 1.4M
20260411T12Z_MSC_GDPS_WindV_IsbL-0985_LatLon0.15_PT174H.grib2 2026-04-11 16:53 1.4M
20260411T12Z_MSC_GDPS_WindV_IsbL-1000_LatLon0.15_PT174H.grib2 2026-04-11 16:53 1.4M
20260411T12Z_MSC_GDPS_WindV_IsbL-1015_LatLon0.15_PT174H.grib2 2026-04-11 16:53 1.4M